Terminal Aerodrome Forecast
Issued by NWS Charleston, WV

Current Version | Previous Version | Graphics & Text | Print | Product List | Glossary On
Versions: 1 2 3 4 5 6 7 8 9 10 11 12 13 14 15 16 17 18 19 20 21 22 23 24 25 26 27 28 29 30 31 32 33 34 35
737
FTUS41 KRLX 310207 AAA
TAFPKB
TAF AMD
KPKB 310207Z 3102/3124 25004KT P6SM BKN035
     FM310700 VRB02KT 3SM BR BKN040
     FM310900 VRB03KT 1SM BR BKN004
     FM311300 VRB03KT 3SM BR BKN015
     FM311400 VRB03KT 6SM BR BKN035
     FM311500 23004KT P6SM BKN035=

USA.gov is the U.S. government's official web portal to all federal, state and local government web resources and services.